Kodiak, AK

12:06 PM AKDT on March 30, 2017 (GMT -0800)
Kodiak

Weather History for PADQ - March, 2014

Change the Weather History Date:

Saturday, March 22, 2014

  Actual Average Record
Temperature  
Mean Temperature 40 °F 33 °F  
Max Temperature 41 °F 38 °F 55 °F (1965)
Min Temperature 38 °F 28 °F 4 °F (1975)
Degree Days  
Heating Degree Days 25 32  
Month to date heating degree days 706 717  
Since 1 July heating degree days 5992 6589  
Cooling Degree Days 0 0  
Month to date cooling degree days 0 0  
Year to date cooling degree days 0 0  
Moisture  
Dew Point 35 °F    
Average Humidity 0    
Maximum Humidity 0    
Minimum Humidity 0    
Precipitation  
Precipitation 0.24 in 0.18 in 1.78 in (1956)
Month to date precipitation 3.95 3.93  
Year to date precipitation 25.20 18.36  
Snow  
Snow 0.00 in 0.40 in 17.80 in (1956)
Month to date snowfall 11.5 8.1  
Since 1 July snowfall 42.5 57.5  
Snow Depth 0.00 in    
Sea Level Pressure  
Sea Level Pressure 30.25 in    
Wind  
Wind Speed 20 mph (ENE)    
Max Wind Speed 29 mph    
Max Gust Speed 33 mph    
Visibility 9 miles    
Events Rain    
T = Trace of Precipitation, MM = Missing Value Source: NWS Daily Summary

Daily Weather History Graph

Daily Weather History Graph

Search for Another Location

Airport or City:

Trip Planner

Search our weather history database for the weather conditions in past years. The results will help you decide how hot, cold, wet, or windy it might be!

Date:

Astronomy

Mar. 22, 2014 Rise Set
Actual Time 8:05 AM AKDT 8:29 PM AKDT
Civil Twilight 7:26 AM AKDT 9:08 PM AKDT
Nautical Twilight 6:39 AM AKDT 9:55 PM AKDT
Astronomical Twilight 5:49 AM AKDT 10:46 PM AKDT
Moon 3:00 AM AKDT (3/22) 10:55 AM AKDT (3/22)
Length of Visible Light 13h 41m
Length of Day
12h 23m
Waning Gibbous, 64% of the Moon is Illuminated
Mar 22
Waning Gibbous
Mar 23
Last Quarter
Mar 30
New
Apr 7
First Quarter
Apr 14
Full

Hourly Weather History & Observations

Time (AKDT) Temp. Windchill Dew Point Humidity Pressure Visibility Wind Dir Wind Speed Gust Speed Precip Events Conditions
12:53 AM 37.9 °F 26.8 °F 37.0 °F 97% 30.14 in 5.0 mi NE 24.2 mph 33.4 mph 0.06 in Rain Light Rain
1:53 AM 39.0 °F 28.3 °F 37.0 °F 93% 30.15 in 7.0 mi NE 24.2 mph 29.9 mph 0.03 in Rain Light Rain
2:53 AM 39.0 °F 28.8 °F 37.0 °F 93% 30.17 in 7.0 mi ENE 21.9 mph - 0.02 in Rain Light Rain
3:17 AM 37.4 °F 27.2 °F 35.6 °F 93% 30.16 in 9.0 mi NE 19.6 mph - 0.01 in Rain Light Rain
3:29 AM 37.4 °F 27.8 °F 35.6 °F 93% 30.16 in 9.0 mi NE 17.3 mph - 0.02 in Rain Light Rain
3:53 AM 37.9 °F 27.1 °F 36.0 °F 93% 30.17 in 5.0 mi ENE 23.0 mph 27.6 mph 0.03 in Rain Light Rain
4:43 AM 37.4 °F 27.2 °F 35.6 °F 93% 30.17 in 10.0 mi NE 19.6 mph - 0.07 in Rain Light Rain
4:53 AM 37.9 °F 28.2 °F 36.0 °F 93% 30.18 in 8.0 mi ENE 18.4 mph - 0.07 in Rain Light Rain
5:00 AM 37.4 °F 27.2 °F 35.6 °F 93% 30.18 in 7.0 mi ENE 19.6 mph - 0.01 in Rain Light Rain
5:53 AM 37.9 °F 28.9 °F 36.0 °F 93% 30.19 in 10.0 mi ENE 16.1 mph 24.2 mph 0.03 in Rain Light Rain
6:53 AM 37.9 °F 27.3 °F 36.0 °F 93% 30.20 in 9.0 mi ENE 21.9 mph 29.9 mph 0.03 in Rain Light Rain
7:53 AM 37.9 °F 26.3 °F 36.0 °F 93% 30.21 in 6.0 mi NE 26.5 mph 33.4 mph 0.01 in Rain Rain
8:53 AM 37.9 °F 27.3 °F 36.0 °F 93% 30.23 in 7.0 mi ENE 21.9 mph 29.9 mph 0.00 in Rain Light Rain
9:53 AM 37.9 °F 27.3 °F 36.0 °F 93% 30.25 in 9.0 mi ENE 21.9 mph - 0.02 in Rain Light Rain
10:53 AM 39.0 °F 28.0 °F 37.0 °F 93% 30.27 in 6.0 mi ENE 25.3 mph 33.4 mph 0.00 in Rain Light Rain
11:53 AM 39.9 °F 30.0 °F 37.9 °F 93% 30.27 in 10.0 mi ENE 21.9 mph - 0.00 in Rain Light Rain
12:53 PM 41.0 °F 31.9 °F 39.0 °F 93% 30.29 in 10.0 mi ENE 19.6 mph - 0.00 in Rain Light Rain
1:53 PM 41.0 °F 31.4 °F 39.0 °F 93% 30.29 in 10.0 mi NE 21.9 mph 27.6 mph 0.00 in   Overcast
2:53 PM 41.0 °F 32.8 °F 39.0 °F 93% 30.30 in 10.0 mi ENE 16.1 mph - 0.00 in   Overcast
3:53 PM 41.0 °F 31.9 °F 37.9 °F 89% 30.30 in 10.0 mi ENE 19.6 mph - N/A   Overcast
4:53 PM 39.9 °F 30.5 °F 34.0 °F 79% 30.30 in 10.0 mi ENE 19.6 mph - N/A   Overcast
5:53 PM 39.9 °F 30.0 °F 33.1 °F 77% 30.31 in 10.0 mi ENE 21.9 mph - N/A   Overcast
6:00 PM 39.2 °F 30.2 °F 33.8 °F 81% 30.30 in 10.0 mi ENE 17.3 mph 27.6 mph N/A   Overcast
6:53 PM 39.9 °F 31.4 °F 33.1 °F 77% 30.31 in 10.0 mi ENE 16.1 mph - N/A   Overcast
7:53 PM 39.9 °F 31.1 °F 33.1 °F 77% 30.32 in 10.0 mi ENE 17.3 mph - N/A   Overcast
8:53 PM 39.0 °F 30.3 °F 32.0 °F 76% 30.34 in 10.0 mi ENE 16.1 mph - N/A   Overcast
9:53 PM 39.0 °F 30.6 °F 30.9 °F 73% 30.34 in 10.0 mi ENE 15.0 mph - N/A   Partly Cloudy
10:53 PM 37.9 °F 28.9 °F 30.9 °F 76% 30.35 in 10.0 mi ENE 16.1 mph - N/A   Scattered Clouds
11:53 PM 37.9 °F 28.9 °F 28.9 °F 70% 30.36 in 10.0 mi ENE 16.1 mph - N/A   Mostly Cloudy